Location: Haulchin
(50.3172°N, 3.4360°E)
Time: 19:50:00
(UTC+00:00)

Helios 1A Rocket - Pass Details

Date: 23 May 2024
Orbit: 521 x 544 km, 98.3° (Epoch: 14 June)

Event Time Altitude Azimuth Distance (km) Brightness Sun altitude
Exits shadow 00:09:02 23° 122° (ESE) 1,168 4.2 -18.8°
Maximum altitude 00:10:55 39° 68° (ENE) 816 3.9 -18.8°
Drops below altitude 10° 00:14:32 10° 359° (N) 1,794 6.7 -18.7°
Sets 00:16:44 0° 352° (N) 2,684 7.8 -18.7°
